9V1CE Weather Reports


Display with metric or nautical units.
time (UTC)temp
F
wind
direction
speed
MPH
gust
MPH
rain 1hr
in
rain 24hr
in
rain mn
in
humidity
%
barometer
mb
20260504173340 82 357 6.0 7.0 0.00 0.00 0.00 89 1010.4
20260504172837 82 358 6.0 7.0 0.00 0.00 0.00 89 1010.4
20260504172333 82 351 7.0 7.0 0.00 0.00 0.00 90 1010.6
20260504171829 82 2 6.0 7.0 0.00 0.00 0.00 90 1010.5
20260504171326 82 0 6.0 7.0 0.00 0.00 0.00 90 1010.6
20260504170824 82 5 5.0 6.0 0.00 0.00 0.00 90 1010.8
20260504170320 82 349 7.0 8.0 0.00 0.00 0.00 90 1010.9
20260504160239 82 358 6.0 7.0 0.00 0.00 0.00 88 1011.1
20260504150704 82 358 7.0 7.0 0.00 3.27 3.27 88 1010.8
20260504150201 82 0 5.0 7.0 0.00 3.27 3.27 87 1010.6
20260504141130 82 353 6.0 6.0 0.00 3.27 3.27 88 1010.4
20260504140627 82 6 6.0 7.0 0.00 3.27 3.27 88 1010.5
20260504140122 82 7 5.0 7.0 0.00 3.27 3.27 89 1010.5
20260504130551 82 355 6.0 7.0 0.00 3.27 3.27 90 1009.6
20260504110438 82 0 5.0 6.0 0.00 3.27 3.27 84 1009.0
20260504100355 84 16 6.0 6.0 0.00 3.27 3.27 79 1009.0
20260504081748 79 23 5.0 9.0 0.00 3.27 3.27 87 1008.4
20260504081244 79 22 4.0 7.0 0.00 3.27 3.27 85 1008.2
20260504080741 81 335 10.0 12.0 0.00 3.27 3.27 81 1008.5
20260504080237 81 336 9.0 12.0 0.00 3.27 3.27 81 1008.5
20260504070205 91 11 6.0 7.0 0.00 3.27 3.27 74 1009.0
20260504060125 88 9 6.0 7.0 0.00 3.27 3.27 78 1010.1
20260504050554 85 10 6.0 6.0 0.00 3.27 3.27 85 1011.9
20260504045547 84 10 5.0 6.0 0.00 3.27 3.27 87 1012.1
20260504045042 84 15 5.0 7.0 0.00 3.27 3.27 88 1011.8
20260504044540 84 4 6.0 6.0 0.00 3.27 3.27 89 1011.8
20260504044037 83 8 5.0 6.0 0.00 3.27 3.27 90 1011.8
20260504043534 83 6 6.0 7.0 0.00 3.27 3.27 92 1011.9
20260504043032 82 6 6.0 7.0 0.00 3.27 3.27 94 1011.7
20260504042528 82 10 5.0 6.0 0.00 3.27 3.27 95 1011.7
20260504042025 81 359 6.0 8.0 0.00 3.27 3.27 95 1011.9
20260504041521 81 352 8.0 10.0 0.00 3.27 3.27 96 1012.0
20260504041017 81 356 7.0 8.0 0.00 3.27 3.27 96 1012.0
20260504040515 81 3 5.0 6.0 0.00 3.27 3.27 96 1012.3
20260504040012 81 358 7.0 7.0 0.02 3.27 3.27 95 1012.4
20260504035509 80 350 8.0 9.0 0.02 3.27 3.27 94 1012.3
20260504035005 80 354 6.0 9.0 0.00 3.27 3.27 95 1012.2
20260504034502 79 351 7.0 8.0 0.00 3.27 3.27 96 1012.3
20260504033959 80 356 6.0 6.0 0.05 3.27 3.27 96 1012.2
20260504033457 80 12 5.0 6.0 0.66 3.27 3.27 96 1012.0
20260504032954 79 0 5.0 7.0 1.47 3.26 3.26 95 1012.1
20260504032451 78 347 7.0 7.0 0.40 3.08 3.08 93 1011.9
20260504031948 79 351 8.0 8.0 0.28 3.01 3.01 91 1011.8
20260504031445 78 345 7.0 8.0 4.25 3.00 3.00 92 1011.7
20260504030941 78 357 6.0 9.0 8.43 2.91 2.91 94 1011.9
20260504030438 80 337 9.0 11.0 8.76 2.23 2.23 94 1012.0
20260504025934 81 22 5.0 6.0 8.05 1.41 1.41 92 1012.1
20260504025431 83 32 5.0 6.0 3.99 0.67 0.67 88 1012.0
20260504024928 85 16 5.0 7.0 0.21 0.04 0.04 82 1012.1
20260504024425 85 4 5.0 6.0 0.00 0.00 0.00 81 1011.9
20260504023922 85 13 6.0 6.0 0.00 0.00 0.00 81 1011.8
20260504023419 85 9 6.0 6.0 0.00 0.00 0.00 80 1011.7
20260504022914 85 11 5.0 7.0 0.00 0.00 0.00 80 1011.6
20260504022411 86 10 5.0 7.0 0.00 0.00 0.00 80 1011.6
20260504021908 86 1 6.0 6.0 0.00 0.00 0.00 80 1011.6
20260504021405 86 5 6.0 6.0 0.00 0.00 0.00 79 1011.6
20260504020902 86 7 6.0 6.0 0.00 0.00 0.00 80 1011.5
20260504020359 85 8 5.0 6.0 0.00 0.00 0.00 81 1011.5
20260504015855 85 8 6.0 6.0 0.00 0.00 0.00 82 1011.5
20260504015351 85 7 5.0 6.0 0.00 0.00 0.00 82 1011.7
20260504014847 85 13 6.0 7.0 0.00 0.00 0.00 82 1011.5
20260504014343 84 353 6.0 7.0 0.00 0.00 0.00 83 1011.4
20260504013841 84 355 6.0 8.0 0.00 0.00 0.00 83 1011.3
20260504013339 84 354 7.0 8.0 0.00 0.00 0.00 83 1011.3
20260504012835 84 0 6.0 7.0 0.00 0.00 0.00 84 1011.4
20260504012333 84 3 5.0 7.0 0.00 0.00 0.00 84 1011.3
20260504011830 84 348 8.0 8.0 0.00 0.00 0.00 84 1011.2
20260504011327 84 352 7.0 8.0 0.00 0.00 0.00 83 1011.1
20260504010822 85 8 5.0 6.0 0.00 0.00 0.00 82 1011.3
20260504010318 85 11 6.0 6.0 0.00 0.00 0.00 82 1011.1
20260504005815 85 11 5.0 6.0 0.00 0.00 0.00 83 1010.9
20260504005312 84 8 6.0 6.0 0.00 0.00 0.00 84 1010.9
20260504004810 84 359 5.0 7.0 0.00 0.00 0.00 84 1010.6
20260504004307 84 7 5.0 6.0 0.00 0.00 0.00 84 1010.6
20260504003803 84 0 6.0 6.0 0.00 0.00 0.00 85 1010.5
20260504003300 83 6 6.0 6.0 0.00 0.00 0.00 86 1010.6
20260504002757 83 10 6.0 6.0 0.00 0.00 0.00 87 1010.6
20260504002254 83 357 5.0 7.0 0.00 0.00 0.00 87 1010.5
20260504001752 82 1 5.0 7.0 0.00 0.00 0.00 87 1010.5
20260504001248 82 351 6.0 7.0 0.00 0.00 0.00 88 1010.2
20260504000745 82 353 6.0 7.0 0.00 0.00 0.00 88 1010.1
20260504000242 82 355 6.0 7.0 0.00 0.00 0.00 88 1010.2
20260503235740 82 350 7.0 7.0 0.00 0.00 0.00 88 1010.2
20260503235237 82 348 7.0 7.0 0.00 0.00 0.00 88 1010.0
20260503234735 82 351 6.0 8.0 0.00 0.00 0.00 88 1010.0
20260503234233 82 347 7.0 8.0 0.00 0.00 0.00 88 1010.1
20260503233729 82 353 7.0 7.0 0.00 0.00 0.00 88 1010.1
20260503233225 82 0 7.0 7.0 0.00 0.00 0.00 88 1010.0
20260503232722 82 354 7.0 8.0 0.00 0.00 0.00 88 1010.0
20260503232219 82 350 7.0 7.0 0.00 0.00 0.00 88 1009.8
20260503231718 82 356 6.0 7.0 0.00 0.00 0.00 89 1009.6
20260503231214 82 0 6.0 7.0 0.00 0.00 0.00 89 1009.7
20260503230710 82 0 6.0 7.0 0.00 0.00 0.00 88 1009.7
20260503230208 82 9 5.0 6.0 0.00 0.00 0.00 88 1009.6
20260503225706 82 8 6.0 6.0 0.00 0.00 0.00 88 1009.5
20260503225205 82 7 5.0 6.0 0.00 0.00 0.00 88 1009.5
20260503224703 82 6 6.0 6.0 0.00 0.00 0.00 88 1009.5
20260503224200 82 2 6.0 7.0 0.00 0.00 0.00 87 1009.3
20260503223658 82 357 5.0 7.0 0.00 0.00 0.00 87 1009.6
20260503223155 82 354 6.0 7.0 0.00 0.00 0.00 87 1009.4
20260503222652 82 10 5.0 6.0 0.00 0.00 0.00 87 1009.2
20260503222149 82 2 5.0 6.0 0.00 0.00 0.00 87 1009.2
20260503221648 82 358 6.0 7.0 0.00 0.00 0.00 87 1009.3
20260503221145 82 6 6.0 7.0 0.00 0.00 0.00 87 1009.2
20260503220641 81 1 6.0 7.0 0.00 0.00 0.00 87 1009.2
20260503220138 81 11 6.0 6.0 0.00 0.00 0.00 87 1009.1
20260503215635 82 5 6.0 6.0 0.00 0.00 0.00 87 1009.2
20260503215131 81 9 5.0 6.0 0.00 0.00 0.00 87 1009.1
20260503214630 81 4 5.0 6.0 0.00 0.00 0.00 87 1009.2
20260503214126 81 13 5.0 6.0 0.00 0.00 0.00 87 1009.0
20260503213620 81 0 6.0 6.0 0.00 0.00 0.00 87 1009.1
20260503213116 81 4 6.0 6.0 0.00 0.00 0.00 87 1009.1
20260503212613 81 0 6.0 6.0 0.00 0.00 0.00 87 1009.3
20260503212110 81 356 6.0 7.0 0.00 0.00 0.00 87 1009.2
20260503211608 81 0 6.0 7.0 0.00 0.00 0.00 87 1009.1
20260503211103 81 347 7.0 8.0 0.00 0.00 0.00 87 1009.4
20260503210600 81 359 7.0 7.0 0.00 0.00 0.00 87 1009.1
20260503210056 81 353 7.0 8.0 0.00 0.00 0.00 87 1009.1
20260503205552 82 347 7.0 7.0 0.00 0.00 0.00 87 1009.1
20260503205049 81 352 7.0 8.0 0.00 0.00 0.00 87 1009.0
20260503204546 81 358 6.0 7.0 0.00 0.00 0.00 87 1009.2
20260503204043 82 0 6.0 7.0 0.00 0.00 0.00 87 1009.3
20260503203540 81 351 7.0 7.0 0.00 0.00 0.00 86 1009.2
20260503203037 82 352 7.0 7.0 0.00 0.00 0.00 87 1009.2
20260503202535 82 348 7.0 8.0 0.00 0.00 0.00 87 1009.2
20260503202033 82 352 7.0 7.0 0.00 0.00 0.00 87 1009.2
20260503201531 82 355 6.0 7.0 0.00 0.00 0.00 87 1009.2
20260503201028 82 353 6.0 8.0 0.00 0.00 0.00 87 1009.1
20260503200524 82 0 7.0 8.0 0.00 0.00 0.00 87 1009.0
20260503200021 81 347 7.0 8.0 0.00 0.00 0.00 87 1009.1
20260503195518 82 354 7.0 8.0 0.00 0.00 0.00 87 1009.3
20260503195015 82 345 7.0 7.0 0.00 0.00 0.00 86 1009.3
20260503194512 82 347 7.0 8.0 0.00 0.00 0.00 86 1009.0
20260503194011 82 353 7.0 7.0 0.00 0.00 0.00 86 1009.2
20260503193508 82 356 6.0 7.0 0.00 0.00 0.00 86 1009.1
20260503193003 82 357 7.0 7.0 0.00 0.00 0.00 86 1009.3
20260503192500 82 354 7.0 8.0 0.00 0.00 0.00 86 1009.3
20260503191955 82 350 7.0 7.0 0.00 0.00 0.00 87 1009.1
20260503191453 82 345 7.0 8.0 0.00 0.00 0.00 87 1009.4
20260503190949 82 347 8.0 9.0 0.00 0.00 0.00 88 1009.4
20260503190447 82 352 7.0 9.0 0.00 0.00 0.00 88 1009.5
20260503185944 82 354 7.0 8.0 0.00 0.00 0.00 88 1009.5
20260503185440 82 351 7.0 8.0 0.00 0.00 0.00 88 1009.4
20260503184939 82 351 7.0 8.0 0.00 0.00 0.00 88 1009.4
20260503184436 82 354 6.0 8.0 0.00 0.00 0.00 88 1009.5
20260503183933 82 353 7.0 9.0 0.00 0.00 0.00 88 1009.4
20260503183429 82 0 6.0 8.0 0.00 0.00 0.00 88 1009.5
20260503182926 82 357 7.0 9.0 0.00 0.00 0.00 88 1009.6
20260503182425 82 345 7.0 8.0 0.00 0.00 0.00 88 1009.6
20260503181922 82 357 7.0 8.0 0.00 0.00 0.00 88 1009.8
20260503181419 82 352 7.0 7.0 0.00 0.00 0.00 88 1009.8
20260503180915 82 5 6.0 7.0 0.00 0.00 0.00 88 1009.8
20260503180414 82 0 6.0 7.0 0.00 0.00 0.00 88 1009.8
20260503175910 82 1 6.0 7.0 0.00 0.00 0.00 88 1009.9
20260503175408 82 0 5.0 6.0 0.00 0.00 0.00 87 1009.8
20260503174903 82 5 5.0 6.0 0.00 0.00 0.00 87 1009.8
20260503174402 82 9 5.0 6.0 0.00 0.00 0.00 88 1009.7
20260503173856 82 349 6.0 7.0 0.00 0.00 0.00 88 1010.1